Hourly Weather Roundup
Issued by NWS Central Illinois

Home | Current Version | Previous Version | Text Only | Print | Product List | Glossary On
Versions: 1 2 3 4 5 6 7 8 9 10 11 12 13 14 15 16 17 18 19 20 21 22 23 24 25 26 27 28 29 30 31 32 33 34 35 36 37 38 39 40 41 42 43 44 45 46 47 48 49 50
000
NZUS43 KILX 280010
HWRILX

AREA WEATHER ROUNDUP
NATIONAL WEATHER SERVICE, LINCOLN IL
700 PM CDT MON APR 27 2015


CITY           SKY/WX    TMP DP  RH WIND       PRES   REMARKS
BLOOMINGTON    CLEAR     60  37  42 NE14      30.08R
6HR MIN TEMP:  58; 6HR MAX TEMP:  63;

CHAMPAIGN      CLEAR     57  35  43 NE10      30.07R
6HR MIN TEMP:  57; 6HR MAX TEMP:  62;

DANVILLE       CLEAR     52  37  55 NE16      30.05R
6HR MIN TEMP:  52; 6HR MAX TEMP:  57;

DECATUR        CLEAR     59  37  44 NE13      30.07R
6HR MIN TEMP:  59; 6HR MAX TEMP:  63;

EFFINGHAM      CLEAR     58  33  37 NE8G16    30.06S
FLORA          CLEAR     60  38  44 N8G16     30.04R
6HR MIN TEMP:  59; 6HR MAX TEMP:  64;

GALESBURG      CLEAR     60  38  43 N10       30.08S
JACKSONVILLE   CLEAR     64  38  38 N8        30.06S
6HR MIN TEMP:  63; 6HR MAX TEMP:  67;

LACON          CLEAR     62  33  34 NE10      30.06S
6HR MIN TEMP:  57; 6HR MAX TEMP:  64;

LAWRENCEVILLE  CLEAR     58  37  45 N15       30.04S
6HR MIN TEMP:  58; 6HR MAX TEMP:  64;

LITCHFIELD     PTCLDY    59  35  41 NE13      30.05R
$$


CITY           SKY/WX    TMP DP  RH WIND       PRES   REMARKS
LINCOLN        CLEAR     62  36  37 N12       30.05F
6HR MIN TEMP:  61; 6HR MAX TEMP:  64;

MACOMB         CLEAR     63  35  35 NE14      30.10R
MATTOON        CLEAR     56  35  45 NE16      30.07R
6HR MIN TEMP:  56; 6HR MAX TEMP:  61;

MT CARMEL AP   CLEAR     61  34  36 N13       30.02S
OLNEY-NOBLE AP CLEAR     57  37  47 N16G23    30.04R
PARIS          CLEAR     54  37  53 NE7G16    30.08S
6HR MIN TEMP:  54; 6HR MAX TEMP:  60;

PEORIA         CLEAR     64  35  34 NE7       30.07S
6HR MIN TEMP:  61; 6HR MAX TEMP:  67;

PONTIAC        CLEAR     58  40  50 NE18      30.09R
RANTOUL        CLEAR     57  38  47 NE14      30.08R
6HR MIN TEMP:  57; 6HR MAX TEMP:  62;

ROBINSON       CLEAR     57  36  45 NE14G22   30.06S
6HR MIN TEMP:  57; 6HR MAX TEMP:  62;

SPRINGFIELD    CLEAR     62  37  39 NE14      30.06F
6HR MIN TEMP:  61; 6HR MAX TEMP:  66;

TAYLORVILLE    CLEAR     59  36  41 NE13      30.06S
$$

...REGIONAL REPORTS...


CITY           SKY/WX    TMP DP  RH WIND       PRES   REMARKS
CHICAGO O`HARE PTCLDY    50  33  52 NE12      30.11S
KANKAKEE       CLEAR     50  35  57 NE16G24   30.10S
MOLINE         CLEAR     63  33  32 N7        30.08S
MOUNT VERNON   PTCLDY    61  37  41 NE9       30.03S
PITTSFIELD     PTCLDY    63  35  35 NE6       30.07S
QUINCY         CLEAR     63  35  35 NE9       30.06F
ROCKFORD       PTCLDY    62  32  32 NE9       30.10S
$$


CITY           SKY/WX    TMP DP  RH WIND       PRES   REMARKS
BURLINGTON     CLEAR     63  37  38 NE8       30.07S
CEDAR RAPIDS   SUNNY     64  35  34 NE9       30.08S
DES MOINES     MOSUNNY   67  30  25 NE10      30.10S
KIRKSVILLE     SUNNY     62  39  42 NE9       30.08S
OTTUMWA        SUNNY     64  36  35 NE7       30.08S
ST LOUIS       MOCLDY    64  36  35 NE10      30.04S
$$


CITY           SKY/WX    TMP DP  RH WIND       PRES   REMARKS
TERRE HAUTE    PTCLDY    54  37  52 N15G21    30.07R
EVANSVILLE     CLEAR     61  38  42 N12       30.01S
INDIANAPOLIS   MOCLDY    53  35  50 N14       30.04R
LAFAYETTE      CLEAR     51  33  50 N14G22    30.07R
MADISON        PTCLDY    64  31  28 N7        30.07S
MILWAUKEE      PTCLDY    46  32  58 NE7       30.13F
$$




USA.gov is the U.S. government's official web portal to all federal, state and local government web resources and services.